Powrót do katalogu

STARLINK-37873

AktywnyŁącznośćSSO
NORAD 69484·PAYLOAD·🇺🇸 United States

Wystrzelony Jun 11, 2026 z Vandenberg Space Force Base

Loading…

Następne Przeloty (najbliższe 24 godziny)

TLE

ŚwieżeSource: CelesTrak SupGP

Epoka: Sep 14, 2026, 22:53 UTC

1 69484C 26131G   26257.95395833  .00039172  00000+0  12160-2 0  2571
2 69484  97.2835 278.8690 0001231  92.0943 333.9707 15.33418771    14

Śledź STARLINK-37873 w czasie rzeczywistym z AllMySat

Download on the App Store